This demonstration page uses our WeatherBlox Daily Observations layout. Learn more.

Left ArrowRight Arrow

Hourly Observations for August 17, 2015

Temp ( °F °C ) Dew Point ( °F °C ) Humidity (%) Winds ( mph kmh ) Pressure ( in mb ) Visibility ( mi km ) Precip ( " mm )
12:53 am 00:53 Clear with Mist and Fog 70 21.1 68 20 93 93 N N/A 30.13 1020 5 8 N/A
1:53 am 01:53 Clear with Mist and Fog 70 21.1 68 20 93 93 N N/A 30.12 1020 3 5 N/A
2:53 am 02:53 Clear 68 20 67 19.4 96 96 N N/A 30.11 1020 7 11 N/A
3:23 am 03:23 Mostly Clear with Mist and Fog 68 20 67 19.4 96 96 N N/A 30.09 1019 4 6 N/A
3:42 am 03:42 Mostly Clear with Mist and Fog 67 19.4 66 18.9 97 97 N N/A 30.09 1019 2 3 N/A
3:45 am 03:45 Mostly Clear with Mist and Fog 68 20 66 18.9 93 93 N N/A 30.09 1019 2 2 N/A
3:53 am 03:53 Mostly Clear with Mist and Fog 68 20 67 19.4 96 96 WNW 3 6 30.11 1020 2 3 N/A
4:01 am 04:01 Clear with Mist and Fog 68 20 67 19.4 96 96 N N/A 30.09 1019 6 10 N/A
4:33 am 04:33 Clear with Mist and Fog 67 19.4 66 18.9 97 97 N N/A 30.09 1019 2 3 N/A
4:44 am 04:44 Clear with Mist and Fog 67 19.4 66 18.9 97 97 N N/A 30.09 1019 3 5 N/A
4:53 am 04:53 Clear with Mist and Fog 67 19.4 66 18.9 97 97 N N/A 30.10 1019 3 4 N/A
5:01 am 05:01 Mostly Clear with Mist and Fog 67 19.4 66 18.9 97 97 N N/A 30.09 1019 3 5 N/A
5:14 am 05:14 Mostly Clear with Mist and Fog 67 19.4 66 18.9 97 97 N N/A 30.09 1019 2 3 N/A
5:39 am 05:39 Mostly Cloudy with Mist and Fog 67 19.4 65 18.3 93 93 N N/A 30.09 1019 1 1 N/A
5:50 am 05:50 Clear with Mist and Fog 66 19 66 19 100 100 N N/A 30.09 1019 1 2 N/A
5:53 am 05:53 Clear with Mist and Fog 67 19.4 65 18.3 93 93 N N/A 30.10 1019 2 3 N/A
6:00 am 06:00 Clear with Mist and Fog 67 19.4 65 18.3 93 93 N N/A 30.09 1019 3 5 N/A
6:41 am 06:41 Mostly Clear with Mist and Fog 67 19.4 66 18.9 97 97 N N/A 30.09 1019 2 3 N/A
6:48 am 06:48 Partly Cloudy with Mist and Fog 66 19 64 18 94 94 N N/A 30.09 1019 2 2 N/A
6:51 am 06:51 Mostly Clear with Mist and Fog 66 19 66 19 100 100 N N/A 30.09 1019 2 3 N/A
6:53 am 06:53 Partly Cloudy with Mist and Fog 67 19.4 66 18.9 97 97 N N/A 30.11 1020 2 3 N/A
7:09 am 07:09 Partly Cloudy with Mist and Fog 66 18.9 65 18.3 96 96 N N/A 30.09 1019 3 5 N/A
7:18 am 07:18 Sunny with Mist and Fog 67 19.4 65 18.3 93 93 N N/A 30.12 1020 3 4 N/A
7:25 am 07:25 Sunny with Mist and Fog 67 19.4 66 18.9 97 97 N N/A 30.12 1020 4 6 N/A
7:53 am 07:53 Sunny with Mist and Fog 70 21.1 68 20 93 93 N N/A 30.13 1020 4 6 N/A
8:53 am 08:53 Sunny with Mist and Fog 74 23.3 71 21.7 91 91 N N/A 30.14 1021 5 8 N/A
9:53 am 09:53 Sunny 79 26.1 71 21.7 77 77 N N/A 30.13 1020 7 11 N/A
10:53 am 10:53 Sunny 82 27.8 72 22.2 72 72 N N/A 30.13 1020 10 16 N/A
11:53 am 11:53 Sunny 83 28.3 70 21.1 65 65 W 5 7 30.11 1020 10 16 N/A
12:23 pm 12:23 Sunny with Thunderstorms 83 28.3 70 21.1 65 65 W 6 9 30.06 1018 10 16 N/A
12:46 pm 12:46 Sunny with Nearby Thunderstorms 84 28.9 70 21.1 63 63 VRB 3 6 30.06 1018 10 16 N/A
12:53 pm 12:53 Partly Cloudy with Thunderstorms 84 28.9 71 21.7 65 65 W 5 7 30.10 1019 10 16 N/A
1:25 pm 13:25 Mostly Cloudy with Nearby Thunderstorms 76 24.4 68 20 77 77 ESE 7 11 30.09 1019 10 16 N/A
1:42 pm 13:42 Mostly Sunny 76 24.4 68 20 77 77 N N/A 30.09 1019 10 16 N/A
1:53 pm 13:53 Sunny 77 25 68 20 74 74 E 3 6 30.11 1020 10 16 N/A
2:53 pm 14:53 Mostly Sunny 77 25 68 20 74 74 E 7 11 30.09 1019 10 16 N/A
3:53 pm 15:53 Sunny 79 26.1 71 21.7 77 77 E 3 6 30.06 1018 10 16 N/A
4:53 pm 16:53 Mostly Sunny 81 27.2 69 20.6 67 67 WSW 5 7 30.05 1018 10 16 N/A
5:53 pm 17:53 Cloudy 80 26.7 71 21.7 74 74 WSW 3 6 30.05 1018 10 16 N/A
6:53 pm 18:53 Partly Cloudy with Nearby Thunderstorms 80 26.7 71 21.7 74 74 N N/A 30.04 1017 10 16 N/A
7:09 pm 19:09 Mostly Cloudy 79 26.1 71 21.7 77 77 N N/A 30.06 1018 10 16 N/A
7:53 pm 19:53 Mostly Sunny 79 26.1 71 21.7 77 77 ESE 5 7 30.04 1017 10 16 N/A
8:53 pm 20:53 Cloudy 75 23.9 70 21.1 84 84 ESE 3 6 30.04 1017 10 16 N/A
9:53 pm 21:53 Clear 73 22.8 68 20 84 84 ENE 5 7 30.04 1017 10 16 N/A
10:53 pm 22:53 Clear 71 21.7 67 19.4 87 87 N N/A 30.04 1017 10 16 N/A
11:53 pm 23:53 Clear 69 20.6 67 19.4 93 93 N N/A 30.03 1017 10 16 N/A

Powered by AerisWeather